Location: *
(37.5724°S, 58.0067°E)
Time: 20:02:16
(UTC+00:00)

Cosmos 1758 - Pass Details

Date: 26 September 2020
Orbit: 540 x 562 km, 82.5° (Epoch: 27 October)

Event Time Altitude Azimuth Distance (km) Brightness Sun altitude
Rises 15:26:16 0° 185° (S) 2,742 7.2 -16.1°
Reaches altitude 10° 15:28:28 10° 183° (S) 1,838 6.2 -16.5°
Maximum altitude 15:32:30 73° 98° (E) 579 3.2 -17.3°
Enters shadow 15:35:10 20° 15° (NNE) 1,291 4.9 -17.8°
